TimeCDT,TemperatureF,Dew PointF,Humidity,Sea Level PressureIn,VisibilityMPH,Wind Direction,Wind SpeedMPH,Gust SpeedMPH,PrecipitationIn,Events,Conditions,WindDirDegrees,DateUTC
12:15 AM,71.6,60.8,69,30.11,10.0,South,16.1,20.7,N/A,,Clear,170,2013-05-25 05:15:00
12:35 AM,71.6,60.8,69,30.11,10.0,South,21.9,27.6,N/A,,Clear,180,2013-05-25 05:35:00
12:55 AM,69.8,59.0,68,30.11,10.0,South,19.6,26.5,N/A,,Clear,180,2013-05-25 05:55:00
1:15 AM,68.0,59.0,73,30.12,10.0,South,16.1,24.2,N/A,,Clear,190,2013-05-25 06:15:00
1:35 AM,68.0,59.0,73,30.12,10.0,South,12.7,-,N/A,,Clear,190,2013-05-25 06:35:00
1:55 AM,68.0,59.0,73,30.13,10.0,South,10.4,-,N/A,,Clear,190,2013-05-25 06:55:00
2:15 AM,68.0,59.0,73,30.14,10.0,South,11.5,-,N/A,,Clear,190,2013-05-25 07:15:00
2:35 AM,66.2,59.0,78,30.15,10.0,SSW,10.4,-,N/A,,Clear,210,2013-05-25 07:35:00
2:55 AM,64.4,59.0,83,30.15,10.0,SSW,9.2,-,N/A,,Clear,200,2013-05-25 07:55:00
3:15 AM,64.4,59.0,83,30.16,10.0,SW,9.2,-,N/A,,Clear,230,2013-05-25 08:15:00
3:35 AM,64.4,59.0,83,30.15,10.0,SSW,8.1,-,N/A,,Clear,210,2013-05-25 08:35:00
3:55 AM,62.6,57.2,82,30.15,10.0,SSW,6.9,-,N/A,,Clear,210,2013-05-25 08:55:00
4:15 AM,62.6,57.2,82,30.13,10.0,South,9.2,-,N/A,,Clear,170,2013-05-25 09:15:00
4:35 AM,62.6,57.2,82,30.12,10.0,SSE,10.4,-,N/A,,Clear,160,2013-05-25 09:35:00
4:55 AM,62.6,57.2,82,30.12,10.0,South,11.5,-,N/A,,Clear,170,2013-05-25 09:55:00
5:15 AM,62.6,59.0,88,30.12,10.0,South,15.0,-,N/A,,Clear,170,2013-05-25 10:15:00
5:35 AM,64.4,59.0,83,30.10,10.0,South,16.1,20.7,N/A,,Clear,190,2013-05-25 10:35:00
5:55 AM,64.4,57.2,77,30.10,10.0,South,16.1,25.3,N/A,,Clear,190,2013-05-25 10:55:00
6:15 AM,62.6,57.2,82,30.10,10.0,South,17.3,21.9,N/A,,Clear,190,2013-05-25 11:15:00
6:35 AM,62.6,57.2,82,30.10,10.0,South,20.7,26.5,N/A,,Clear,180,2013-05-25 11:35:00
6:55 AM,64.4,59.0,83,30.10,10.0,South,19.6,27.6,N/A,,Clear,190,2013-05-25 11:55:00
7:15 AM,64.4,59.0,83,30.11,10.0,South,19.6,24.2,N/A,,Clear,190,2013-05-25 12:15:00
7:35 AM,64.4,59.0,83,30.12,10.0,South,19.6,-,N/A,,Clear,190,2013-05-25 12:35:00
7:55 AM,66.2,59.0,78,30.13,10.0,SSW,17.3,23.0,N/A,,Clear,200,2013-05-25 12:55:00
8:15 AM,68.0,59.0,73,30.13,10.0,SSW,16.1,23.0,N/A,,Clear,200,2013-05-25 13:15:00
8:35 AM,69.8,59.0,68,30.13,10.0,SSW,19.6,-,N/A,,Clear,210,2013-05-25 13:35:00
8:55 AM,69.8,59.0,68,30.12,10.0,SSW,17.3,25.3,N/A,,Clear,200,2013-05-25 13:55:00
9:15 AM,71.6,60.8,69,30.12,10.0,SSW,20.7,27.6,N/A,,Clear,200,2013-05-25 14:15:00
9:35 AM,73.4,60.8,65,30.10,10.0,South,18.4,25.3,N/A,,Clear,190,2013-05-25 14:35:00
9:55 AM,73.4,60.8,65,30.11,10.0,SSW,19.6,27.6,N/A,,Clear,200,2013-05-25 14:55:00
10:15 AM,77.0,60.8,57,30.11,10.0,South,21.9,26.5,N/A,,Clear,190,2013-05-25 15:15:00
10:35 AM,77.0,59.0,54,30.11,10.0,SSW,23.0,28.8,N/A,,Clear,200,2013-05-25 15:35:00
10:55 AM,77.0,59.0,54,30.10,10.0,South,24.2,31.1,N/A,,Scattered Clouds,190,2013-05-25 15:55:00
11:15 AM,78.8,59.0,51,30.10,10.0,South,23.0,32.2,N/A,,Mostly Cloudy,180,2013-05-25 16:15:00
11:35 AM,80.6,59.0,48,30.09,10.0,South,28.8,35.7,N/A,,Scattered Clouds,190,2013-05-25 16:35:00
11:55 AM,80.6,59.0,48,30.10,10.0,South,25.3,34.5,N/A,,Clear,190,2013-05-25 16:55:00
12:15 PM,80.6,59.0,48,30.09,10.0,South,26.5,34.5,N/A,,Scattered Clouds,190,2013-05-25 17:15:00
12:35 PM,80.6,59.0,48,30.09,10.0,SSW,25.3,31.1,N/A,,Mostly Cloudy,200,2013-05-25 17:35:00
12:55 PM,80.6,59.0,48,30.08,10.0,SSW,17.3,29.9,N/A,,Mostly Cloudy,200,2013-05-25 17:55:00
1:15 PM,82.4,59.0,45,30.07,10.0,South,28.8,33.4,N/A,,Mostly Cloudy,190,2013-05-25 18:15:00
1:35 PM,82.4,57.2,42,30.07,10.0,South,25.3,33.4,N/A,,Mostly Cloudy,180,2013-05-25 18:35:00
1:55 PM,82.4,60.8,48,30.05,10.0,SSE,24.2,29.9,N/A,,Mostly Cloudy,160,2013-05-25 18:55:00
2:15 PM,82.4,59.0,45,30.05,10.0,South,20.7,28.8,N/A,,Mostly Cloudy,170,2013-05-25 19:15:00
2:35 PM,82.4,59.0,45,30.05,10.0,SSE,23.0,33.4,N/A,,Overcast,150,2013-05-25 19:35:00
2:55 PM,82.4,59.0,45,30.04,10.0,South,21.9,29.9,N/A,,Mostly Cloudy,190,2013-05-25 19:55:00
3:15 PM,84.2,59.0,42,30.04,10.0,SSE,20.7,25.3,N/A,,Scattered Clouds,160,2013-05-25 20:15:00
3:35 PM,86.0,59.0,40,30.02,10.0,SSE,20.7,29.9,N/A,,Clear,160,2013-05-25 20:35:00
3:55 PM,86.0,57.2,37,30.02,10.0,South,21.9,31.1,N/A,,Scattered Clouds,170,2013-05-25 20:55:00
4:15 PM,86.0,57.2,37,30.02,10.0,South,23.0,29.9,N/A,,Mostly Cloudy,170,2013-05-25 21:15:00
4:35 PM,84.2,59.0,42,30.02,10.0,SSE,21.9,29.9,N/A,,Mostly Cloudy,160,2013-05-25 21:35:00
4:55 PM,84.2,59.0,42,30.01,10.0,South,18.4,28.8,N/A,,Scattered Clouds,170,2013-05-25 21:55:00
5:15 PM,86.0,59.0,40,30.01,10.0,South,23.0,27.6,N/A,,Scattered Clouds,170,2013-05-25 22:15:00
5:35 PM,84.2,59.0,42,30.00,10.0,SSE,23.0,27.6,N/A,,Scattered Clouds,160,2013-05-25 22:35:00
5:55 PM,84.2,59.0,42,30.00,10.0,South,18.4,31.1,N/A,,Scattered Clouds,170,2013-05-25 22:55:00
6:15 PM,84.2,59.0,42,29.98,10.0,South,25.3,32.2,N/A,,Clear,170,2013-05-25 23:15:00
6:35 PM,82.4,59.0,45,29.97,10.0,SSE,24.2,32.2,N/A,,Scattered Clouds,160,2013-05-25 23:35:00
6:55 PM,82.4,59.0,45,29.97,10.0,SSE,20.7,28.8,N/A,,Clear,150,2013-05-25 23:55:00
7:15 PM,80.6,60.8,51,29.96,10.0,SSE,21.9,31.1,N/A,,Clear,150,2013-05-26 00:15:00
7:35 PM,80.6,62.6,54,29.97,10.0,SSE,19.6,31.1,N/A,,Clear,150,2013-05-26 00:35:00
7:55 PM,78.8,62.6,57,29.97,10.0,SSE,20.7,27.6,N/A,,Clear,150,2013-05-26 00:55:00
8:35 PM,77.0,62.6,61,29.97,10.0,SSE,19.6,24.2,N/A,,Clear,150,2013-05-26 01:35:00
8:55 PM,75.2,62.6,65,29.97,10.0,SSE,19.6,28.8,N/A,,Clear,150,2013-05-26 01:55:00
9:15 PM,73.4,62.6,69,29.98,10.0,SSE,19.6,27.6,N/A,,Clear,150,2013-05-26 02:15:00
9:35 PM,73.4,62.6,69,29.99,10.0,SSE,17.3,26.5,N/A,,Clear,150,2013-05-26 02:35:00
9:55 PM,71.6,62.6,73,30.01,10.0,SSE,19.6,25.3,N/A,,Clear,160,2013-05-26 02:55:00
10:15 PM,71.6,62.6,73,30.00,10.0,SE,18.4,24.2,N/A,,Clear,140,2013-05-26 03:15:00
10:35 PM,71.6,62.6,73,30.00,10.0,SSE,18.4,-,N/A,,Clear,150,2013-05-26 03:35:00
10:55 PM,69.8,62.6,78,29.99,10.0,SSE,20.7,24.2,N/A,,Clear,150,2013-05-26 03:55:00
11:15 PM,69.8,64.4,83,29.98,10.0,SSE,20.7,27.6,N/A,,Clear,150,2013-05-26 04:15:00
11:35 PM,69.8,64.4,83,29.98,10.0,SSE,20.7,26.5,N/A,,Clear,160,2013-05-26 04:35:00
11:55 PM,69.8,64.4,83,29.97,10.0,SSE,18.4,26.5,N/A,,Clear,160,2013-05-26 04:55:00